This demonstration page uses our WeatherBlox Daily Observations layout. Learn more.

Left ArrowRight Arrow

Hourly Observations for August 16, 2022

Temp ( °F °C ) Dew Point ( °F °C ) Humidity (%) Winds ( mph kmh ) Pressure ( in mb ) Visibility ( mi km ) Precip ( " mm )
12:15 am 00:15 Cloudy with Mist and Fog 65 18.2 64 17.7 97 97 ENE 9 15 29.97 1015 5 8 0.00 0.00
12:35 am 00:35 Mostly Cloudy 64 18 63 17.3 96 96 E 6 9 29.98 1015 7 11 0.00 0.00
12:55 am 00:55 Mostly Cloudy 64 18 63 17.2 95 95 E 8 13 29.98 1015 7 11 0.00 0.00
1:15 am 01:15 Cloudy 64 17.8 63 17.1 96 96 ENE 12 19 29.97 1015 7 11 0.00 0.00
1:35 am 01:35 Cloudy with Mist and Fog 64 17.7 63 17.1 96 96 NE 9 15 29.98 1015 5 8 0.00 0.00
1:55 am 01:55 Cloudy with Mist and Fog 64 17.5 63 17 97 97 ENE 8 13 29.99 1016 4 6 0.00 0.00
2:15 am 02:15 Cloudy with Mist and Fog 64 17.5 63 17 97 97 ENE 7 11 30.00 1016 3 5 0.00 0.00
2:35 am 02:35 Cloudy with Mist and Fog 63 17.3 63 17 98 98 NE 5 7 30.02 1016 2 3 0.00 0.00
2:55 am 02:55 Cloudy with Drizzle 63 17.1 62 16.7 97 97 ENE 5 7 30.03 1017 2 3 0.00 0.00
3:15 am 03:15 Cloudy with Drizzle 63 17 62 16.5 97 97 NE 7 11 30.03 1017 2 3 0.00 0.00
3:35 am 03:35 Cloudy with Drizzle 62 16.7 62 16.5 99 99 ENE 7 11 30.02 1017 2 2 0.01 0.25
3:55 am 03:55 Cloudy with Mist and Fog 62 16.7 62 16.5 99 99 ENE 6 9 30.01 1016 3 4 0.01 0.25
4:15 am 04:15 Cloudy with Mist and Fog 62 16.6 61 16.3 98 98 NE 7 11 30.00 1016 4 6 0.00 0.00
4:35 am 04:35 Cloudy with Mist and Fog 62 16.6 61 16.2 97 97 NNE 7 11 30.00 1016 5 8 0.00 0.00
4:55 am 04:55 Cloudy 62 16.5 61 16.2 98 98 NNE 8 13 30.00 1016 7 11 0.00 0.00
5:15 am 05:15 Cloudy 62 16.6 61 16.2 97 97 NNE 9 15 29.99 1016 7 11 0.00 0.00
5:35 am 05:35 Cloudy 62 16.6 61 16.1 97 97 NNE 7 11 30.00 1016 7 11 0.00 0.00
5:55 am 05:55 Cloudy 62 16.6 61 16.1 97 97 NNE 10 17 30.00 1016 7 11 0.00 0.00
6:15 am 06:15 Cloudy 62 16.7 61 16.1 96 96 NNE 8 13 30.02 1017 7 11 0.00 0.00
6:35 am 06:35 Cloudy 62 16.7 61 16.1 96 96 ENE 8 13 30.04 1017 7 11 0.00 0.00
6:55 am 06:55 Cloudy 62 16.6 61 16 96 96 E 7 11 30.05 1018 7 11 0.00 0.00
7:15 am 07:15 Cloudy 62 16.6 61 16 96 96 E 5 7 30.06 1018 10 16 0.00 0.00
7:35 am 07:35 Cloudy 62 16.7 61 16.1 96 96 E 3 6 30.06 1018 7 11 0.00 0.00
7:55 am 07:55 Cloudy with Mist and Fog 62 16.6 61 16.1 97 97 ENE 6 9 30.07 1018 2 3 0.00 0.00
8:15 am 08:15 Cloudy with Mist and Fog 62 16.6 61 16.1 97 97 E 5 7 30.07 1018 2 3 0.00 0.00
8:35 am 08:35 Cloudy with Mist and Fog 62 16.6 61 16.2 97 97 NE 6 9 30.07 1018 2 3 0.00 0.00
8:55 am 08:55 Cloudy with Mist and Fog 62 16.4 61 16 97 97 NE 9 15 30.07 1018 3 5 0.00 0.00
9:15 am 09:15 Cloudy 62 16.5 61 16 97 97 NE 8 13 30.07 1018 10 16 0.00 0.00
9:35 am 09:35 Cloudy 62 16.5 60 15.8 96 96 NE 9 15 30.07 1018 10 16 0.00 0.00
9:55 am 09:55 Cloudy 62 16.5 60 15.6 94 94 NE 8 13 30.07 1018 10 16 0.00 0.00
10:15 am 10:15 Cloudy 62 16.5 60 15.7 95 95 NE 8 13 30.07 1018 10 16 0.00 0.00
10:35 am 10:35 Cloudy 62 16.9 60 15.8 93 93 NE 13 20 30.06 1018 10 16 0.00 0.00
10:55 am 10:55 Cloudy 62 16.6 61 15.9 96 96 NE 13 20 30.06 1018 10 16 0.00 0.00
11:15 am 11:15 Cloudy 64 17.9 61 16.3 90 90 NNE 12 19 30.05 1018 10 16 0.00 0.00
11:35 am 11:35 Cloudy 64 17.5 61 16 91 91 NNE 10 17 30.05 1018 10 16 0.00 0.00
11:55 am 11:55 Cloudy 64 17.6 60 15.8 89 89 NE 12 19 30.05 1018 10 16 0.00 0.00
12:15 pm 12:15 Cloudy 64 17.8 60 15.7 88 88 NE 5 7 30.06 1018 10 16 0.00 0.00
12:35 pm 12:35 Cloudy 64 18 60 15.7 86 86 ENE 10 17 30.07 1018 10 16 0.00 0.00
12:55 pm 12:55 Cloudy 65 18.1 60 15.7 86 86 NE 8 13 30.07 1018 10 16 0.00 0.00
1:15 pm 13:15 Cloudy 65 18.3 60 15.7 85 85 E 10 17 30.07 1018 10 16 0.00 0.00
1:35 pm 13:35 Cloudy 64 18 60 15.7 86 86 ENE 9 15 30.08 1019 10 16 0.00 0.00
1:55 pm 13:55 Cloudy 64 17.9 60 15.6 86 86 ENE 10 17 30.08 1019 10 16 0.00 0.00
2:15 pm 14:15 Cloudy 64 17.6 60 15.7 89 89 ENE 9 15 30.08 1019 10 16 0.00 0.00
2:35 pm 14:35 Cloudy 64 17.7 60 15.7 88 88 ENE 8 13 30.09 1019 10 16 0.00 0.00
2:55 pm 14:55 Cloudy with Mist and Fog 63 17.4 61 16.1 92 92 E 6 9 30.09 1019 3 5 0.00 0.00
3:15 pm 15:15 Cloudy with Mist and Fog 63 17.3 61 16.3 94 94 ENE 3 6 30.11 1020 4 6 0.00 0.00
3:35 pm 15:35 Cloudy with Mist and Fog 63 17.3 62 16.4 94 94 NE 5 7 30.11 1020 2 3 0.00 0.00
3:55 pm 15:55 Cloudy with Light Rain 63 17.3 62 16.7 96 96 ENE 3 6 30.11 1020 2 2 0.00 0.00
4:15 pm 16:15 Cloudy with Mist and Fog 64 17.6 62 16.9 96 96 NE 3 6 30.10 1019 4 6 0.00 0.00
4:35 pm 16:35 Cloudy 64 17.8 63 17 95 95 E 3 6 30.09 1019 7 11 0.00 0.00
4:55 pm 16:55 Cloudy 65 18.2 63 17 93 93 ENE 5 7 30.08 1019 10 16 0.00 0.00
5:15 pm 17:15 Cloudy with Mist and Fog 65 18.1 63 17.1 94 94 NE 7 11 30.07 1018 5 8 0.00 0.00
5:35 pm 17:35 Cloudy 65 18.2 63 17.2 94 94 NE 6 9 30.08 1019 7 11 0.00 0.00
5:55 pm 17:55 Cloudy 65 18.5 63 17.1 92 92 ENE 7 11 30.08 1018 10 16 0.00 0.00
6:15 pm 18:15 Cloudy 65 18.6 63 17 90 90 ENE 9 15 30.07 1018 10 16 0.00 0.00
6:35 pm 18:35 Cloudy 65 18.6 62 16.9 90 90 ENE 10 17 30.07 1018 10 16 0.00 0.00
6:55 pm 18:55 Cloudy 64 18 63 17 94 94 ENE 9 15 30.08 1019 10 16 0.00 0.00
7:15 pm 19:15 Cloudy 64 17.8 62 16.8 94 94 NE 9 15 30.07 1018 10 16 0.00 0.00
7:35 pm 19:35 Cloudy 64 17.5 62 16.7 95 95 ENE 10 17 30.07 1018 7 11 0.00 0.00
7:55 pm 19:55 Cloudy 64 17.7 62 16.9 95 95 ENE 6 9 30.08 1019 7 11 0.00 0.00
8:15 pm 20:15 Cloudy 64 17.8 62 16.8 94 94 ENE 7 11 30.08 1019 10 16 0.00 0.00
8:35 pm 20:35 Cloudy 64 17.8 62 16.7 93 93 ENE 8 13 30.09 1019 10 16 0.00 0.00
8:55 pm 20:55 Cloudy 64 17.7 62 16.6 93 93 E 6 9 30.09 1019 10 16 0.00 0.00
9:15 pm 21:15 Cloudy 64 17.8 62 16.7 93 93 ENE 5 7 30.10 1019 10 16 0.00 0.00
9:35 pm 21:35 Cloudy 64 17.8 62 16.8 94 94 ENE 3 6 30.10 1019 10 16 0.00 0.00
9:55 pm 21:55 Cloudy 64 17.8 62 16.8 94 94 ENE 6 9 30.11 1020 10 16 0.00 0.00
10:15 pm 22:15 Cloudy 64 17.8 62 16.9 94 94 ENE 5 7 30.11 1020 10 16 0.00 0.00
10:35 pm 22:35 Cloudy 64 17.8 63 17 95 95 ENE 5 7 30.11 1020 10 16 0.00 0.00
10:55 pm 22:55 Cloudy 64 17.7 63 17 96 96 ENE 6 9 30.12 1020 7 11 0.00 0.00
11:15 pm 23:15 Cloudy with Mist and Fog 64 17.5 63 17 97 97 E 5 7 30.11 1020 3 5 0.00 0.00
11:35 pm 23:35 Cloudy with Mist and Fog 64 17.5 63 17 97 97 E 7 11 30.12 1020 5 8 0.00 0.00
11:55 pm 23:55 Cloudy with Mist and Fog 64 17.5 63 17 97 97 E 6 9 30.11 1020 4 6 0.00 0.00

Powered by AerisWeather